Tracking 19831 objects as of 23-Aug-2019
HD Live streaming from Space Station
objects crossing your sky now

COSMOS 2531

Track COSMOS 2531 now!
10-day predictions


NORAD ID: 43752
Int'l Code: 2018-097B
Perigee: 1,487.4 km
Apogee: 1,515.7 km
Inclination: 82.5 °
Period: 115.9 minutes
Semi major axis: 7872 km
RCS: Unknown
Launch date: November 30, 2018
Source: Commonwealth of Independent States (former USSR) (CIS)
Launch site: PLESETSK MISSILE AND SPACE COMPLEX (PKMTR)
aabbcc
Your satellite tracking list
Your tracking list is empty




NASA's NSSDC Master Catalog

Two Line Element Set (TLE):
1 43752U 18097B   19234.89631398 +.00000022 +00000-0 +84148-4 0  9995
2 43752 082.5224 328.1381 0017947 091.1586 269.1552 12.42887208033020
Source of the keplerian elements: AFSPC